GFSSW_sfc_thetae_000.txt.gz
Theta_e
315 315 315 315 315 315 315 315 315 315 315 316 316 317 317 317 316 319 310 313 315 324 320 314 316 312 312 308 309 309 300 297 297 298 299 304 302 307 309 306 308 309 312 325 330
315 316 316 316 315 314 315 315 315 315 315 315 316 317 317 317 319 311 319 323 323 323 316 312 309 310 308 307 308 305 300 298 302 302 301 303 303 304 304 305 306 309 314 321 327
315 315 314 315 314 315 315 315 315 315 314 315 316 317 317 317 314 310 322 325 324 319 318 316 314 310 306 308 307 305 299 302 304 304 304 303 303 306 303 302 307 306 311 315 319
315 315 315 315 316 316 316 316 315 315 315 316 317 317 317 320 301 314 326 327 328 319 317 314 312 308 305 304 307 302 304 305 306 306 305 304 306 305 305 305 309 310 313 314 316
315 315 316 316 317 317 316 316 316 315 315 315 317 317 320 313 310 320 326 326 320 318 314 311 309 309 304 305 307 304 305 306 307 307 307 307 305 305 305 308 310 311 313 313 315
315 315 315 315 316 316 317 317 316 315 315 315 316 315 318 305 319 321 320 320 319 317 314 314 311 312 308 307 306 307 307 306 307 307 307 305 304 305 306 309 309 309 310 312 313
315 315 315 315 316 316 316 316 316 316 315 316 316 319 315 309 320 322 320 319 319 317 312 314 315 312 311 307 309 307 303 306 307 305 303 306 301 301 308 309 307 307 309 310 311
315 315 315 314 315 315 316 316 315 315 315 316 316 321 310 319 322 319 321 318 319 319 316 315 316 312 311 310 308 304 304 298 304 304 305 303 296 304 308 307 305 306 308 309 310
315 315 315 314 314 315 315 315 315 316 316 316 321 320 308 320 315 319 319 315 317 318 318 316 314 310 310 305 302 302 296 298 300 305 303 302 298 304 308 306 305 307 307 308 309
315 315 314 314 315 315 315 315 316 317 319 322 321 311 312 310 314 317 319 318 314 314 313 312 310 306 305 301 293 296 296 299 299 303 303 301 301 305 307 307 306 307 308 308 308
314 314 314 314 316 315 318 322 315 315 315 309 309 309 310 314 317 313 315 314 314 311 304 307 304 299 300 302 302 300 299 298 301 304 302 301 301 304 306 305 305 306 307 308 309
314 314 314 314 316 316 322 319 318 321 306 311 310 310 311 313 308 311 314 309 307 303 305 303 301 302 303 303 301 299 298 298 301 303 302 301 301 304 304 304 305 305 306 307 308
313 313 313 312 315 323 324 320 327 327 312 306 310 308 309 312 306 306 310 308 304 302 301 299 302 303 302 301 299 298 298 297 297 301 304 301 299 301 303 304 305 306 307 307 307
313 312 312 312 315 325 321 325 331 331 306 302 306 309 310 309 305 311 310 307 306 301 301 301 304 301 300 300 299 295 302 300 299 298 293 301 291 299 301 301 303 305 307 307 308
312 313 313 312 328 319 322 327 331 330 295 304 305 313 310 306 306 307 312 309 302 301 301 300 300 298 298 299 301 298 302 301 301 299 298 298 293 298 301 299 301 305 306 307 309
312 312 315 322 331 324 327 331 329 310 295 301 305 304 304 305 305 307 308 310 307 302 302 300 304 302 300 302 303 304 302 302 303 298 292 297 295 295 298 300 301 304 306 307 308
311 312 320 328 322 328 332 327 306 299 303 300 301 303 302 301 303 303 302 303 300 297 298 302 301 303 303 300 304 302 298 293 292 294 292 298 294 296 303 304 303 303 304 306 308
311 311 322 327 330 333 328 314 296 300 300 304 302 302 300 301 302 302 302 300 303 301 298 295 294 300 303 300 297 299 297 293 284 286 288 295 290 296 304 305 305 305 307 307 308
310 331 328 331 332 332 318 304 300 301 302 301 301 298 300 301 300 301 300 299 301 302 295 295 295 304 303 303 301 298 296 300 292 290 288 292 297 302 305 304 304 305 306 306 307
326 325 321 331 332 328 317 301 301 303 304 303 297 299 297 299 298 300 299 301 300 303 305 300 293 302 302 305 305 300 303 293 295 284 283 290 292 293 300 302 304 305 305 307 308
328 318 324 328 329 317 308 302 301 304 305 302 300 298 298 298 299 298 298 301 303 302 304 303 298 297 301 300 298 298 297 298 297 294 286 285 289 302 301 303 304 304 306 306 307
328 313 326 329 313 312 305 304 298 304 306 304 304 303 300 301 299 299 298 301 305 304 300 303 298 292 295 303 303 301 298 298 290 289 292 290 290 303 305 306 305 306 306 307 307
315 314 327 326 307 305 305 303 305 303 304 303 302 304 304 301 298 300 301 305 305 303 300 301 297 289 293 299 301 298 299 299 298 293 289 285 289 304 305 305 306 305 305 305 306
315 307 316 318 314 307 304 303 301 306 304 305 303 305 303 301 303 299 300 304 306 305 302 302 297 293 288 293 297 294 297 298 296 290 290 291 293 299 302 302 304 304 303 303 304
314 309 310 308 310 308 307 304 302 301 305 305 303 302 301 295 297 297 301 302 305 303 304 302 294 296 296 297 296 295 294 296 294 295 289 292 294 298 301 301 302 303 303 303 302
313 311 311 307 306 306 302 302 301 302 302 301 300 303 303 300 299 297 300 301 300 304 303 303 292 292 290 295 296 292 294 296 295 295 295 296 295 302 302 303 302 302 302 302 302
317 315 314 304 306 306 305 302 302 303 305 304 304 303 298 303 306 306 306 305 304 301 300 299 293 287 286 292 290 285 291 294 296 297 296 291 296 301 299 300 300 301 302 301 301

GFSSW_sfc_thetae_003.txt.gz
Theta_e
316 315 315 315 315 314 315 315 316 316 316 316 316 317 318 317 317 318 304 308 310 323 323 311 310 309 305 299 299 297 290 286 289 291 291 294 294 298 300 299 301 303 314 318 322
315 316 315 315 315 315 315 316 315 315 315 315 316 317 317 317 317 308 316 322 324 326 311 310 308 307 299 297 300 296 288 289 295 295 292 295 295 296 297 296 298 302 315 320 324
316 315 315 315 315 315 316 316 315 315 316 316 316 317 317 315 314 305 320 325 326 325 312 311 311 308 299 298 298 294 291 297 298 301 298 297 299 300 295 294 299 300 306 316 318
315 315 315 315 315 316 316 315 316 316 316 316 316 316 316 316 297 307 324 326 327 322 313 310 307 302 299 296 299 295 300 301 299 301 300 298 298 300 295 296 305 303 308 309 310
316 316 316 316 316 317 316 316 316 316 315 315 316 316 316 310 306 315 324 322 319 314 310 309 306 304 299 300 302 298 299 302 303 303 301 303 299 299 299 302 305 306 309 306 308
316 316 316 315 316 317 317 316 316 316 315 314 315 314 313 303 315 316 316 316 314 312 308 308 306 307 304 302 300 303 303 301 302 302 302 300 299 297 300 300 303 305 305 305 305
315 315 315 315 316 316 316 316 315 315 315 314 315 316 314 306 312 313 317 313 313 313 308 309 310 306 306 304 306 304 298 301 301 301 297 297 295 294 302 302 302 303 304 304 305
315 315 314 314 315 315 315 315 315 315 315 314 314 314 306 316 312 315 314 313 315 315 312 310 310 307 306 306 304 300 297 292 300 300 300 297 290 296 299 301 300 300 301 303 304
315 315 314 314 314 315 315 315 315 315 315 315 312 313 303 317 312 314 314 313 314 315 313 314 309 304 304 298 294 295 289 293 296 299 297 295 292 299 302 300 298 299 299 301 302
315 314 314 314 315 316 315 315 317 315 316 317 318 307 310 308 311 313 311 312 311 311 309 308 303 298 296 293 286 290 290 294 292 296 297 295 294 298 300 299 297 297 297 298 300
314 314 314 314 315 314 316 316 306 307 310 302 304 306 307 311 313 308 310 309 309 307 299 300 296 291 292 296 297 295 293 291 294 299 296 295 294 297 296 297 297 297 298 299 301
313 314 314 314 314 315 314 313 313 313 302 309 308 307 310 310 305 306 309 303 303 297 300 296 294 298 300 299 297 295 293 292 296 300 298 295 295 296 298 297 298 298 299 300 300
313 313 313 312 313 318 314 313 323 323 307 305 308 307 307 309 305 303 305 303 301 298 296 293 298 302 299 298 296 293 293 293 293 297 299 295 292 294 297 298 300 301 300 301 300
312 313 312 312 312 318 313 319 324 323 301 299 304 306 309 308 305 307 307 304 303 298 297 297 301 298 297 297 296 291 298 297 296 293 288 295 285 292 294 295 298 300 298 299 300
312 313 313 312 319 313 317 321 322 321 284 303 303 308 307 303 303 305 307 305 298 298 297 296 295 294 296 296 298 295 300 297 297 293 290 292 287 289 294 293 295 297 299 299 301
312 312 312 318 319 316 322 324 320 297 285 300 304 303 303 304 304 305 306 307 305 301 299 297 300 298 296 300 300 301 298 297 297 293 284 291 289 288 292 294 296 299 299 300 300
311 312 315 324 314 320 323 319 297 287 303 298 300 302 301 299 302 301 301 298 294 291 292 298 297 298 302 296 300 297 293 282 281 281 281 293 289 290 297 298 298 297 298 299 299
310 310 321 324 323 323 321 304 287 299 298 303 301 300 298 298 300 300 299 295 299 297 292 291 287 297 301 297 294 294 293 282 278 277 281 292 286 291 299 300 301 300 299 300 301
310 319 319 321 325 322 312 292 290 298 301 299 300 296 297 300 297 298 296 296 297 298 292 290 292 301 301 300 298 295 289 296 286 280 279 286 292 297 298 301 303 301 302 301 300
314 320 314 321 322 320 303 295 298 302 302 302 296 297 294 296 296 296 296 299 299 301 301 297 289 299 302 302 300 297 299 287 284 278 278 284 286 288 295 298 300 298 299 300 301
319 311 316 320 321 311 294 292 299 302 304 300 298 297 298 296 297 296 296 299 301 300 301 299 294 292 298 297 294 293 290 292 295 287 282 280 284 296 297 298 299 301 302 301 300
316 305 316 320 305 304 295 301 299 303 305 304 302 301 298 299 297 297 297 299 303 301 297 298 292 283 292 299 301 297 296 296 286 286 284 282 286 300 299 300 302 302 301 301 300
310 308 319 317 290 290 300 302 303 303 302 303 301 302 302 298 291 298 299 303 302 301 296 297 288 281 287 293 297 295 296 296 292 286 284 281 285 300 301 301 302 298 298 300 301
309 293 308 311 308 301 299 300 299 304 303 304 302 303 300 298 300 295 298 303 304 302 302 300 293 287 282 288 293 290 293 294 292 278 284 286 289 294 297 297 297 297 298 298 299
308 299 303 293 298 301 301 302 300 299 304 304 301 301 298 290 292 293 299 302 303 301 301 298 287 291 293 295 295 294 293 293 291 290 285 289 290 294 295 296 297 299 300 300 299
303 301 306 300 303 301 297 299 299 300 300 300 298 301 300 294 297 293 297 297 295 299 297 299 286 288 288 294 294 290 291 292 291 291 291 291 290 296 296 299 298 298 299 298 299
310 308 306 298 297 292 294 300 301 302 302 303 301 299 292 300 301 301 301 301 300 297 292 292 285 284 286 290 288 281 287 290 291 293 291 285 290 297 296 297 297 298 298 298 299

GFSSW_sfc_thetae_009.txt.gz
Theta_e
315 315 316 315 315 315 315 315 315 316 316 316 317 317 318 319 316 314 299 307 308 324 321 307 306 305 301 297 295 291 287 284 285 287 289 292 292 295 296 302 299 306 308 311 323
315 316 316 316 315 316 315 315 315 315 316 316 316 317 318 317 314 303 314 321 324 324 307 306 305 305 297 295 295 291 286 288 292 291 289 292 292 293 294 298 305 309 312 316 323
316 316 315 315 315 314 315 315 315 315 316 316 317 317 317 315 303 303 320 324 326 323 309 308 307 304 297 296 295 290 290 293 295 295 294 293 294 295 293 292 303 307 309 318 321
316 315 315 315 314 315 316 315 315 315 316 316 316 317 317 312 291 305 325 327 327 320 309 306 304 300 296 296 296 293 295 296 295 297 295 293 298 295 297 296 302 310 310 317 319
315 315 316 316 316 316 316 315 315 316 316 316 316 318 310 302 303 312 324 318 310 309 305 304 302 300 297 297 297 295 295 297 298 298 296 298 295 295 296 298 300 309 312 316 317
314 315 315 316 316 316 316 315 315 315 315 315 316 317 307 297 310 311 311 312 310 308 306 305 302 303 300 299 296 299 298 298 298 297 297 296 295 294 298 296 299 305 309 312 313
314 314 314 315 315 315 315 315 315 315 315 315 317 315 308 302 308 309 311 309 308 309 306 305 305 303 301 299 302 300 296 297 297 297 296 296 292 293 296 296 298 301 304 305 306
315 314 314 314 314 314 314 314 314 315 315 315 316 314 301 312 309 310 310 310 311 310 309 308 307 303 301 301 299 295 292 289 295 296 296 293 288 296 295 295 296 297 300 301 302
314 314 313 313 313 313 313 313 314 315 315 315 312 307 302 315 308 309 307 306 307 309 309 311 306 299 299 291 289 290 285 287 292 296 296 292 290 295 296 295 296 295 296 298 297
314 314 313 313 313 312 312 313 315 314 314 314 314 301 306 303 307 307 306 307 304 306 305 303 298 293 291 290 283 286 286 289 288 294 295 292 291 295 296 294 294 292 293 294 296
314 314 313 313 313 312 311 310 307 302 307 299 299 301 302 307 308 305 305 305 304 301 295 297 292 288 289 291 293 291 289 287 290 294 294 291 292 295 294 292 292 291 294 297 299
313 313 313 313 312 313 314 310 309 308 297 305 303 303 305 305 301 304 305 300 300 293 295 294 290 294 296 295 293 292 289 288 292 295 294 293 292 291 293 292 292 294 295 297 297
313 313 313 312 312 313 312 312 320 315 298 301 303 302 303 304 300 300 302 300 297 294 293 291 294 297 295 293 292 290 289 289 290 293 293 292 290 291 294 295 296 296 296 296 297
312 312 311 313 314 312 310 314 317 312 291 296 300 303 304 303 300 303 303 301 298 293 293 293 295 294 293 292 292 288 293 292 292 289 285 291 283 289 291 291 294 295 294 294 297
311 312 311 316 312 309 314 317 318 310 279 298 299 305 302 299 299 302 305 301 295 296 294 292 291 292 292 293 294 292 296 293 293 289 287 289 284 289 291 290 291 293 295 296 296
311 311 312 317 310 310 316 315 313 292 282 295 299 298 299 300 300 303 302 304 302 298 297 295 296 295 294 296 297 298 294 292 291 288 282 286 285 284 288 290 293 295 296 296 296
310 311 316 319 307 315 316 309 293 283 299 294 295 297 297 295 297 298 297 295 292 287 288 295 295 297 298 294 296 294 289 280 279 278 279 289 285 286 292 294 295 295 297 297 296
310 313 317 319 317 316 309 298 285 294 294 298 297 297 294 295 296 297 294 292 295 293 289 288 285 295 299 294 291 291 289 280 276 275 279 288 282 288 294 296 296 298 296 297 298
312 316 310 313 317 316 302 286 286 292 296 295 296 293 293 296 295 294 293 292 294 295 289 287 289 297 298 298 295 292 287 291 282 276 277 283 288 293 294 297 298 296 297 296 297
313 308 306 315 316 306 294 290 293 298 298 299 291 294 290 293 293 293 292 296 295 298 296 293 287 295 297 298 297 294 295 285 283 274 277 283 284 286 291 294 297 295 294 295 296
315 299 306 315 312 300 287 287 295 299 300 297 295 294 294 293 293 292 293 296 297 297 298 293 290 289 293 292 290 290 288 289 289 284 280 276 282 292 292 294 295 294 295 294 295
305 295 307 310 300 293 291 296 298 300 302 300 299 297 295 295 293 293 293 296 299 298 293 294 288 282 288 294 296 294 291 290 283 282 281 278 283 294 293 295 295 294 296 296 296
303 301 309 306 289 285 296 298 300 299 299 298 297 298 299 294 289 294 295 299 299 297 293 294 285 280 284 288 292 290 291 291 287 282 282 277 281 294 297 295 295 294 296 297 297
300 292 300 301 298 295 294 295 296 300 299 300 298 299 296 294 295 291 295 299 300 299 300 297 289 284 280 284 288 288 290 291 288 280 282 284 287 292 293 293 294 295 296 297 297
299 293 299 289 293 296 297 298 295 295 299 300 297 297 294 288 289 290 295 296 298 299 297 293 286 287 288 290 290 291 290 291 289 288 284 286 286 291 292 293 294 296 296 297 298
300 298 298 297 299 295 292 294 296 297 297 296 295 297 296 292 292 289 294 292 293 295 293 294 283 285 285 290 290 288 290 290 290 290 288 288 286 292 295 296 296 296 297 296 296
303 302 299 291 290 289 289 295 297 298 298 299 298 294 288 296 299 298 299 298 296 293 289 289 283 281 278 286 284 280 285 287 288 289 288 283 287 292 293 294 295 296 296 296 296

GFSSW_sfc_thetae_015.txt.gz
Theta_e
318 316 315 315 314 314 314 315 316 315 316 317 317 318 318 318 316 314 306 312 312 324 320 310 309 307 304 301 299 298 295 291 292 293 295 298 299 301 303 310 307 311 319 319 332
316 316 315 315 315 314 314 316 315 315 316 316 317 318 318 317 314 307 317 323 326 324 311 308 306 304 302 301 300 298 294 293 296 296 297 299 299 299 302 306 309 313 317 325 331
316 315 315 315 315 315 315 315 315 316 316 317 317 318 317 316 308 306 321 326 326 322 312 310 308 306 301 301 300 299 296 297 298 298 300 300 300 300 302 302 307 307 316 325 329
316 316 315 315 315 316 315 315 315 316 317 317 317 318 317 313 298 309 324 325 327 317 311 309 308 304 301 300 301 298 298 300 300 300 300 300 301 300 300 302 305 312 322 325 325
315 315 316 315 315 315 315 315 316 316 317 317 317 317 313 306 306 312 322 317 312 312 307 307 306 304 300 302 302 300 299 300 301 299 300 301 300 300 301 304 303 312 321 324 325
314 315 315 315 316 316 316 315 315 315 316 317 317 317 312 302 311 311 310 312 311 311 308 308 306 306 304 302 302 302 301 301 302 301 301 300 300 301 302 302 303 310 318 323 325
314 314 314 315 316 316 316 315 315 315 315 316 317 315 308 308 313 311 309 312 310 313 309 308 308 307 305 303 303 301 298 299 299 300 300 300 298 299 302 301 301 304 312 320 323
314 314 313 314 314 314 314 314 314 314 315 316 316 314 306 313 313 310 309 310 310 312 312 311 310 306 304 304 300 297 297 295 299 301 300 300 296 302 301 301 302 302 303 312 319
314 313 313 313 313 313 313 313 313 315 315 315 315 312 305 314 308 309 309 307 309 311 310 308 307 302 302 297 295 295 291 293 296 299 300 300 297 302 303 301 302 301 301 306 313
314 314 313 313 313 312 312 313 314 314 314 314 308 306 306 303 306 307 309 309 307 310 308 305 301 298 297 297 289 291 291 292 293 297 300 297 298 300 299 297 298 299 299 303 307
314 314 313 312 312 312 313 312 305 305 307 301 303 301 302 307 308 306 306 308 306 303 299 300 297 294 294 296 295 294 293 292 294 297 298 296 296 298 298 298 297 298 300 302 304
314 314 314 313 312 312 313 311 308 310 300 304 303 304 305 306 302 305 308 303 302 296 298 298 294 296 297 296 295 294 292 292 295 296 297 296 296 297 298 297 298 300 301 303 304
313 313 313 312 312 313 315 315 320 315 299 301 303 304 304 306 301 303 305 304 298 296 295 295 295 298 297 295 295 294 293 292 292 295 297 295 294 296 297 299 300 300 301 302 304
312 312 312 312 312 314 312 317 319 313 293 295 300 303 304 305 300 306 306 304 301 295 296 295 297 297 296 295 295 292 295 295 294 293 291 294 289 294 295 296 298 300 301 302 303
311 312 312 312 314 311 315 318 321 308 282 297 300 307 304 301 301 304 306 305 298 297 298 294 296 296 296 295 297 295 297 295 294 293 292 293 291 294 295 294 296 299 300 302 303
312 313 312 313 313 315 317 317 312 292 282 296 300 299 300 300 301 303 302 305 303 299 299 297 300 298 297 298 298 298 296 294 293 292 288 290 290 291 293 294 296 300 302 301 302
313 314 316 314 309 316 315 309 293 285 298 294 295 298 296 296 298 299 297 296 294 291 291 296 297 300 299 297 299 298 292 287 287 287 287 290 289 291 295 297 298 299 300 301 303
312 313 313 316 316 316 310 299 287 292 294 298 297 297 294 296 297 297 296 294 297 295 292 290 288 296 300 297 294 294 293 287 280 283 285 289 287 291 297 300 301 301 300 301 302
313 310 311 314 316 311 303 289 288 292 297 296 297 294 294 297 296 296 294 294 296 297 292 290 290 298 299 299 298 294 291 293 286 279 284 288 291 295 297 298 299 298 299 300 301
309 306 309 313 314 306 296 291 294 298 298 298 293 295 292 294 294 294 294 297 296 298 299 295 289 295 297 299 299 296 296 290 290 282 280 286 287 290 293 295 297 298 298 300 301
306 303 309 314 309 299 290 290 296 300 301 298 296 295 295 294 294 293 293 297 298 298 299 295 292 291 294 294 292 294 292 291 291 288 283 280 286 295 295 296 297 298 299 301 302
301 299 310 311 298 293 292 296 298 299 301 300 299 298 296 296 294 294 294 296 299 300 295 296 291 287 290 295 297 295 292 291 286 283 286 285 285 296 297 297 298 299 299 301 303
302 303 309 308 291 288 297 298 299 299 298 298 298 299 299 295 292 295 296 301 300 300 297 297 290 284 285 291 294 293 294 291 289 288 286 283 285 295 297 298 299 299 300 302 302
300 296 301 300 298 296 295 296 296 300 299 299 298 300 297 294 297 294 296 300 301 300 298 298 290 287 284 286 290 288 290 292 291 287 286 287 289 294 296 296 298 298 301 301 301
300 297 299 292 295 297 297 297 295 295 299 300 298 297 295 290 293 294 296 297 299 299 298 297 290 290 290 291 290 290 290 290 289 290 286 289 290 293 296 296 297 300 300 299 300
300 299 298 295 297 297 293 296 296 297 297 297 296 298 298 293 294 292 296 296 295 298 296 294 289 289 286 288 288 286 289 290 290 291 290 291 290 297 297 298 298 298 298 298 298
302 301 301 290 291 292 292 296 297 298 298 299 298 296 292 297 300 301 300 298 298 296 293 292 289 285 283 285 285 283 287 289 290 292 291 287 292 295 295 296 297 297 298 296 294

GFSSW_sfc_thetae_018.txt.gz
Theta_e
318 317 316 316 315 315 315 315 316 316 316 317 318 318 319 319 318 319 312 316 317 324 321 315 314 313 310 307 308 307 302 298 298 299 300 304 303 306 312 312 313 316 318 323 332
318 317 317 316 315 315 315 316 316 316 316 317 317 318 319 318 319 313 319 326 328 326 316 313 310 310 308 307 309 307 302 299 302 303 303 304 304 305 306 306 309 314 321 328 334
317 317 316 316 316 315 315 315 316 316 317 317 318 318 317 319 313 312 325 327 327 324 317 315 313 311 307 309 307 305 301 303 303 304 306 304 304 306 304 303 307 308 317 328 331
316 316 316 316 316 316 316 315 316 316 317 318 318 319 318 319 301 316 324 326 328 319 315 315 313 308 305 303 306 301 304 304 303 305 304 303 306 304 306 306 310 313 319 326 327
315 316 316 316 315 316 316 315 315 316 317 317 318 318 319 312 310 318 323 322 319 318 315 313 310 308 303 306 307 305 305 306 306 305 305 305 305 305 306 309 310 315 321 322 323
315 315 315 316 316 315 315 316 315 316 316 317 318 317 317 305 317 319 316 317 318 318 315 315 312 312 308 307 306 307 307 306 306 306 306 304 305 306 307 309 309 312 317 321 322
315 314 315 315 316 316 316 316 315 315 316 317 317 320 313 309 319 319 316 316 316 317 314 315 314 312 312 308 309 307 304 306 305 306 305 305 303 303 307 307 307 309 313 319 321
315 314 314 314 315 315 315 314 314 315 316 316 316 321 309 317 320 316 316 315 317 318 317 316 316 312 310 309 306 303 304 300 304 306 306 307 300 306 309 308 308 309 310 316 320
314 314 314 313 313 313 313 313 314 315 316 316 320 316 306 318 312 315 315 312 314 316 316 313 313 309 307 305 301 301 297 297 300 305 305 304 301 307 308 306 308 310 310 311 317
314 314 314 313 313 313 312 314 315 316 317 318 314 310 310 307 312 312 314 314 312 313 312 311 311 306 306 303 295 296 296 297 297 302 303 302 302 305 306 305 306 308 309 309 314
315 314 313 313 313 312 315 322 313 311 313 307 307 306 308 312 314 312 312 312 312 310 305 307 305 300 301 302 301 299 298 297 299 302 302 302 302 302 305 306 306 307 307 310 314
314 315 314 313 313 313 322 316 314 316 305 309 308 308 310 311 308 312 316 308 307 302 305 303 299 301 303 302 300 299 297 297 300 301 302 302 300 302 304 304 306 307 309 310 311
313 314 314 313 312 320 324 321 327 322 306 306 308 308 308 312 307 308 311 308 305 302 302 300 300 301 301 301 300 300 297 297 297 301 302 301 300 300 303 305 306 307 309 309 310
313 313 313 312 316 322 319 323 329 320 301 300 304 307 309 309 305 312 312 307 304 301 302 300 302 301 301 299 301 296 300 300 299 298 296 301 294 298 300 302 304 305 307 308 309
312 314 312 313 324 318 321 328 330 321 290 301 304 312 311 306 306 308 312 310 302 301 302 297 300 300 299 299 302 299 302 300 299 299 298 298 296 298 301 299 301 305 307 308 309
313 314 313 320 328 323 328 326 325 303 288 298 304 303 304 306 305 308 308 311 307 304 304 301 305 304 302 302 302 303 300 300 301 300 293 296 295 296 299 298 301 305 307 309 309
313 314 321 324 319 328 329 322 301 294 301 297 299 303 303 301 303 304 303 302 300 296 297 300 301 304 305 301 304 303 299 294 292 292 291 296 294 296 299 302 303 304 306 308 310
312 315 317 324 329 328 324 312 293 297 297 301 301 302 299 301 301 302 300 299 303 301 298 295 293 301 304 301 299 299 299 293 284 288 291 295 291 296 302 304 305 305 306 307 308
313 324 325 326 328 326 316 303 297 299 301 300 301 298 298 300 301 301 300 299 301 303 297 295 294 302 302 303 302 299 296 299 292 287 290 294 296 300 302 302 303 303 304 305 307
320 321 321 325 325 322 312 296 299 302 303 302 297 299 296 298 298 299 298 300 299 303 304 299 293 299 301 303 304 301 301 295 297 286 282 290 291 294 298 301 301 303 303 305 307
320 312 320 325 322 315 304 300 301 304 305 302 300 299 299 298 299 298 297 300 302 302 304 300 297 295 299 298 297 299 298 296 296 294 287 284 289 301 299 301 300 303 303 305 306
318 308 321 324 309 307 303 302 300 304 306 305 305 303 301 300 299 298 298 300 303 304 299 301 298 292 293 299 302 300 297 295 291 285 291 289 289 301 302 302 302 303 303 305 307
315 314 320 320 305 304 303 302 304 303 303 303 302 304 304 300 297 300 300 303 304 303 301 302 296 289 290 296 299 297 298 297 295 293 289 287 290 300 302 302 303 303 303 305 305
315 309 313 313 309 305 303 301 301 305 303 305 303 305 303 300 302 299 300 303 304 304 299 302 297 292 287 290 294 292 294 295 294 289 290 291 293 298 299 300 302 302 304 304 305
314 309 308 306 305 306 305 303 301 300 304 305 302 302 301 298 298 298 301 301 302 300 303 303 293 295 295 295 295 294 293 294 292 294 289 292 293 297 299 300 301 303 303 303 303
312 309 309 305 305 305 300 303 301 301 302 301 301 302 302 298 298 297 299 299 298 302 301 301 294 293 290 294 294 292 294 294 294 295 295 295 294 300 301 302 301 301 302 301 301
313 311 314 298 302 305 303 303 302 305 303 305 305 303 300 302 305 306 306 305 303 300 298 298 296 291 288 291 291 288 292 293 295 296 295 291 296 299 299 299 300 301 301 300 298

GFSSW_sfc_thetae_021.txt.gz
Theta_e
320 319 318 318 316 315 315 316 316 316 317 317 318 319 319 319 318 321 315 317 319 324 320 319 317 317 315 310 312 312 304 300 300 301 301 306 305 308 311 311 312 313 318 322 329
319 319 318 317 316 316 315 316 316 316 317 317 318 319 319 319 322 315 317 328 329 328 319 315 312 312 311 309 310 307 304 301 305 305 304 305 306 306 308 308 308 313 318 327 329
319 318 318 318 317 317 316 316 316 316 316 317 318 319 319 319 318 314 326 327 327 326 322 317 314 313 308 310 308 307 303 304 304 306 307 305 304 306 306 305 309 310 314 323 326
318 317 317 317 317 316 316 316 316 316 317 318 318 319 319 324 303 317 326 328 329 324 318 315 314 309 307 305 308 303 305 305 305 306 305 304 307 305 306 308 311 313 318 322 323
317 316 317 317 316 316 316 316 316 316 317 317 318 319 322 315 311 320 324 326 322 320 316 313 310 309 304 306 306 304 305 306 306 306 306 307 305 305 306 310 311 314 318 320 323
316 316 316 317 317 316 316 316 316 316 317 317 318 317 320 308 319 321 319 319 320 318 314 314 312 312 307 307 307 308 308 308 308 307 307 306 306 308 308 311 310 313 315 319 320
316 316 316 316 317 317 317 316 316 316 317 317 318 321 318 311 320 320 318 318 319 319 314 316 316 312 312 308 311 309 305 307 308 309 307 309 304 305 310 310 310 311 313 317 319
316 315 315 315 316 316 316 315 315 316 317 317 317 323 311 319 322 317 318 317 320 321 319 319 318 315 312 313 308 305 306 302 306 308 308 308 302 308 311 311 310 311 312 314 318
315 315 315 314 314 314 315 314 315 316 317 318 322 323 308 316 314 316 317 314 317 319 318 316 317 312 311 306 303 304 299 299 302 307 306 306 303 309 311 310 309 311 312 313 316
314 315 315 314 314 314 314 314 315 316 318 321 320 312 311 308 313 315 318 317 315 316 314 313 312 308 307 304 297 298 298 299 299 304 304 303 303 308 309 308 309 311 312 313 314
314 315 315 315 315 314 315 321 315 315 315 310 309 308 309 313 317 314 316 315 315 313 307 309 306 303 303 304 303 301 300 299 302 304 303 303 303 305 308 309 309 310 310 311 314
315 315 314 314 314 314 323 319 318 318 306 311 311 312 313 315 308 312 318 311 310 305 307 304 302 304 305 304 302 302 300 300 302 304 303 303 303 305 307 307 310 310 312 313 314
314 315 315 314 313 320 326 323 329 325 307 307 310 310 310 313 308 309 314 310 306 303 303 303 303 304 304 303 302 302 300 300 299 303 305 303 301 302 306 308 309 310 311 312 312
314 315 313 312 316 328 322 327 332 328 303 301 305 308 311 312 306 314 314 310 306 302 304 303 305 303 303 301 303 299 303 302 301 300 297 304 296 301 304 304 306 308 310 310 311
314 316 312 313 325 319 324 332 335 328 292 303 305 315 311 308 308 309 315 311 304 303 305 301 302 302 301 301 304 301 305 302 302 301 300 300 297 300 303 301 304 307 309 310 311
314 315 313 321 332 326 331 333 331 306 290 300 306 306 306 308 307 310 310 313 311 305 306 304 307 306 304 305 304 306 304 303 303 302 294 299 297 298 301 302 304 307 309 310 312
314 315 316 328 321 332 335 326 301 296 303 299 302 305 305 304 304 306 305 305 303 299 299 302 303 306 307 303 306 305 302 295 293 294 293 299 296 299 303 304 306 306 308 310 312
314 316 322 330 334 333 327 310 296 299 300 304 304 304 301 304 303 304 303 302 305 304 302 298 295 303 306 303 300 301 301 295 286 290 293 298 292 299 305 307 307 307 308 309 310
313 331 329 332 335 332 315 303 300 301 303 302 303 300 300 302 303 303 303 301 303 305 300 298 297 304 305 306 305 301 298 301 295 293 292 295 299 303 305 305 305 306 307 308 308
322 321 322 332 335 327 312 300 302 305 305 305 299 302 298 300 301 302 301 303 302 305 307 301 296 301 303 305 306 303 304 297 298 287 284 291 293 295 300 302 305 304 305 307 308
322 312 326 334 329 314 305 303 303 307 307 304 301 300 302 300 302 300 300 302 304 304 306 302 299 298 300 300 298 301 300 298 297 295 288 286 291 302 301 302 302 304 306 307 308
320 309 327 330 309 312 306 305 303 306 309 307 307 304 303 303 301 301 300 303 306 306 301 303 300 294 295 301 304 302 299 298 292 288 293 291 290 303 303 304 304 305 306 307 308
314 315 327 326 307 309 307 305 307 306 306 306 304 306 307 303 299 302 303 306 306 306 303 304 299 292 294 298 302 298 300 298 296 295 289 289 291 302 304 303 304 304 306 306 307
316 310 314 317 315 308 305 304 303 308 306 307 306 308 306 303 305 302 302 305 307 307 300 304 299 294 290 293 297 294 296 297 296 291 291 292 294 299 301 301 303 304 305 306 306
318 312 313 307 309 309 309 306 303 301 307 308 305 305 304 300 302 301 304 304 305 300 304 304 295 297 297 297 296 295 295 296 294 295 291 294 295 299 301 301 303 305 305 304 304
313 312 315 313 311 309 303 305 303 303 305 303 304 305 305 301 300 299 301 301 300 304 303 303 296 296 293 296 296 293 295 296 296 296 296 296 295 302 303 304 303 303 303 302 303
321 321 317 303 309 307 306 306 305 307 306 307 307 305 303 304 308 309 308 306 305 302 300 300 298 293 289 295 293 289 294 295 296 297 296 292 297 302 301 301 300 300 301 302 301

GFSSW_sfc_thetae_024.txt.gz
Theta_e
320 320 320 320 318 317 316 316 317 317 317 318 318 319 320 320 318 320 314 317 319 324 321 316 316 315 315 311 311 311 303 300 301 303 301 306 304 308 311 310 312 316 317 323 327
320 320 320 320 319 317 317 316 317 317 317 317 318 319 320 319 319 317 322 328 330 328 316 314 312 313 309 309 309 305 301 300 304 305 303 304 305 305 307 307 308 314 321 325 324
320 320 319 320 319 318 316 317 317 317 317 318 318 319 319 318 316 313 326 327 329 328 321 320 314 311 307 309 308 306 301 304 303 305 306 304 304 307 306 303 308 309 318 322 322
319 319 319 318 319 318 317 316 317 317 317 318 318 319 319 320 303 316 326 328 330 322 320 315 312 308 306 304 308 302 305 304 304 306 305 303 305 304 306 307 311 313 316 322 321
318 317 317 317 318 317 316 316 316 317 317 317 318 319 320 315 311 319 325 328 321 321 317 314 311 309 304 305 306 303 303 304 305 305 306 307 304 305 305 309 312 315 317 320 321
317 316 316 317 318 317 315 316 316 316 317 317 318 318 319 308 319 320 319 319 319 317 314 314 311 311 306 305 305 306 305 305 306 306 306 304 305 306 307 309 309 312 315 318 321
317 316 316 316 317 317 317 316 316 317 317 318 318 320 318 312 319 320 319 317 319 318 315 316 315 310 310 307 310 308 304 306 306 307 305 307 303 303 308 310 308 309 312 316 318
317 316 315 316 316 316 316 316 316 316 317 318 318 321 313 319 320 317 318 316 318 319 318 317 317 314 312 312 307 304 305 300 305 307 308 306 299 306 310 308 307 309 310 312 317
317 316 315 315 315 315 315 315 315 316 317 318 319 320 311 318 313 316 317 314 316 318 318 317 316 310 309 304 301 303 297 300 302 307 307 305 302 307 310 310 308 310 311 311 313
316 316 315 315 315 314 314 314 316 316 318 322 322 314 312 309 313 314 317 317 314 315 313 312 311 306 306 303 295 297 298 299 299 304 303 302 302 307 309 308 308 309 310 311 312
316 316 316 315 315 314 313 318 314 313 317 310 309 309 309 312 314 313 316 315 315 312 306 309 304 301 302 303 302 301 299 298 302 305 302 301 302 305 307 309 309 311 312 312 314
315 316 315 315 315 315 319 318 319 319 307 312 311 311 313 315 308 311 317 310 308 304 307 303 300 304 305 304 302 301 300 299 303 304 302 302 302 305 306 307 309 310 311 312 312
315 316 316 314 314 317 322 323 328 327 307 307 311 309 310 314 308 308 313 311 306 304 303 301 303 305 303 302 301 302 299 300 299 302 304 302 300 301 305 307 309 310 311 311 311
315 316 315 313 315 326 322 326 330 330 301 300 305 308 311 312 306 313 314 310 305 302 303 303 305 303 302 301 302 298 304 302 300 299 294 303 292 299 302 303 306 307 309 309 310
315 317 312 312 325 319 325 330 332 328 292 303 305 315 311 308 308 308 314 310 304 303 304 301 302 302 301 302 303 300 304 302 301 299 299 299 296 299 302 300 303 306 308 310 311
316 316 313 318 331 327 331 333 330 305 292 300 306 306 305 307 307 310 309 313 312 304 306 304 307 306 304 305 304 305 304 303 302 300 294 298 297 295 299 301 304 307 308 310 311
315 314 316 330 323 333 336 325 300 296 303 299 301 305 304 303 305 306 305 304 303 298 299 302 303 306 306 303 306 305 300 295 293 293 292 300 295 298 303 305 306 306 307 309 311
316 315 323 331 332 336 328 310 296 300 299 304 304 304 301 304 303 304 303 301 305 304 300 297 295 302 306 303 300 301 299 296 286 288 291 298 292 297 305 306 307 307 308 309 310
314 333 331 335 337 335 316 302 300 300 304 302 303 300 300 303 303 303 303 301 302 305 299 297 297 304 305 305 304 300 298 301 295 293 291 292 298 302 304 304 305 306 307 308 309
322 322 323 334 337 327 312 302 304 306 305 304 298 302 298 300 300 302 301 303 302 305 306 300 296 301 302 304 306 301 302 295 299 287 284 290 292 294 299 301 304 304 304 307 309
327 312 327 335 332 314 305 306 304 307 308 303 302 300 302 300 302 301 301 303 305 304 306 302 299 298 301 300 297 299 298 298 297 295 287 285 289 300 300 302 302 303 305 306 307
327 306 330 334 307 309 306 306 303 306 309 307 307 304 303 303 301 301 300 304 306 306 300 301 299 296 295 301 303 301 298 298 294 289 294 292 289 302 302 304 304 304 305 307 307
313 316 328 328 305 311 308 306 307 305 306 306 305 306 307 304 299 303 303 306 307 306 303 303 300 293 293 298 302 297 299 298 297 295 289 286 289 303 303 303 305 303 305 306 307
318 309 312 315 316 308 306 304 304 309 307 308 306 308 305 303 305 302 302 305 308 305 302 304 299 295 291 293 296 293 295 297 296 291 291 291 293 298 300 301 302 303 305 305 305
319 311 311 305 308 309 308 306 303 302 308 308 305 305 304 300 302 301 304 304 305 301 304 304 296 297 297 296 296 295 294 295 293 294 289 293 293 297 300 301 302 303 303 303 303
314 312 314 311 311 308 304 305 304 304 305 303 303 305 306 303 302 300 303 302 301 304 303 304 297 297 293 296 295 292 294 295 295 295 295 295 294 301 303 303 302 302 302 302 302
321 322 316 306 309 309 307 306 305 307 307 308 307 306 303 306 308 308 308 307 305 303 301 301 299 294 289 293 292 290 295 295 296 297 296 292 297 301 300 300 300 300 301 300 300

GFSSW_sfc_thetae_030.txt.gz
Theta_e
321 321 321 321 320 320 319 318 317 317 317 317 317 318 319 319 317 316 307 311 316 324 318 310 311 310 309 305 305 302 293 288 292 295 299 299 301 302 305 309 310 313 314 315 315
321 320 321 321 320 319 319 318 317 317 317 317 317 318 319 318 314 312 319 324 325 324 308 307 306 307 302 302 303 297 291 292 296 299 296 298 299 300 306 311 311 313 317 317 315
320 317 318 320 320 319 319 318 317 317 317 317 318 318 318 316 312 312 325 326 327 324 309 310 310 307 302 301 299 295 292 295 298 298 299 298 298 301 304 305 313 312 313 315 313
319 317 316 318 319 319 318 317 316 317 317 317 318 318 318 314 299 308 325 328 328 319 312 311 309 305 298 296 298 293 296 298 297 297 297 297 297 298 298 306 317 317 317 315 312
317 317 317 318 318 318 317 316 315 316 316 317 317 318 314 310 307 315 328 328 322 315 311 310 308 303 298 298 296 295 296 298 299 300 297 298 297 298 298 310 318 318 317 315 315
317 317 316 317 317 317 316 316 314 315 316 316 318 317 311 303 316 313 315 319 314 312 311 311 308 306 301 299 297 298 297 297 297 297 299 298 297 298 297 311 315 316 315 315 316
317 316 316 316 316 316 316 316 315 315 315 317 318 316 313 310 316 315 311 310 310 312 309 309 308 305 304 300 300 298 294 296 295 297 295 298 295 295 300 313 314 314 315 315 316
317 316 315 315 314 314 314 314 314 315 316 317 317 314 306 318 312 311 309 309 312 312 312 310 309 306 303 302 300 297 295 291 296 298 299 297 291 297 298 306 310 312 313 314 313
315 315 314 314 313 313 313 313 314 315 316 316 312 311 302 319 308 310 309 309 311 311 311 311 308 303 301 294 291 293 288 291 294 299 297 296 293 298 298 300 300 299 303 308 310
315 315 314 314 313 312 312 313 315 314 314 316 316 306 312 309 308 308 308 311 309 308 307 305 301 297 295 293 287 290 289 293 292 295 295 292 292 297 298 298 298 303 306 308 308
315 315 314 313 313 313 309 307 305 306 310 302 305 308 308 309 308 305 308 308 307 305 298 302 296 291 293 294 296 295 292 292 292 296 294 292 293 296 298 302 303 304 305 306 307
314 314 314 314 313 313 308 310 310 311 300 309 311 310 312 307 303 305 309 303 303 298 301 296 292 297 299 300 298 297 294 292 295 299 295 292 293 296 299 301 304 304 304 305 306
314 314 313 313 313 310 308 313 319 318 304 303 308 306 307 309 304 302 307 305 301 298 297 294 296 301 301 298 297 296 294 293 293 295 295 294 292 296 299 301 303 304 306 307 306
313 313 312 312 308 311 307 314 318 315 291 298 302 304 307 307 302 306 307 304 302 297 298 296 300 300 299 297 296 293 299 297 295 291 286 292 283 290 295 297 300 302 302 304 306
313 313 311 312 309 314 318 324 322 312 279 298 302 307 304 304 303 303 305 305 299 298 298 295 297 298 297 297 298 296 299 297 296 291 289 290 286 288 297 295 297 298 301 303 304
313 313 311 310 309 318 323 323 310 294 281 297 302 301 299 303 302 303 303 306 305 300 298 297 301 299 298 300 300 300 298 297 295 292 283 292 289 287 291 295 298 301 301 302 302
312 313 311 319 316 322 321 306 290 285 299 295 296 299 299 298 300 300 299 298 295 291 291 297 298 300 301 297 300 297 293 283 283 281 282 295 291 291 297 301 302 300 300 301 301
311 311 313 323 325 321 313 298 287 297 296 299 300 300 296 299 299 300 297 294 298 299 293 291 288 296 301 297 294 294 293 282 280 279 282 292 287 290 300 303 303 303 302 302 301
312 314 319 321 324 318 304 290 292 297 299 298 299 295 295 299 298 298 295 295 296 297 293 291 291 298 299 299 298 294 289 294 287 283 280 286 290 296 299 301 303 302 305 303 302
313 313 312 322 321 310 301 294 299 302 302 300 294 297 292 295 295 296 295 299 297 299 300 296 289 297 299 300 300 295 297 288 285 279 279 284 287 290 295 297 300 299 299 300 300
313 301 310 323 312 302 293 297 303 304 305 300 298 296 296 295 296 296 296 299 301 300 298 296 293 291 297 293 291 292 291 291 290 284 279 277 282 293 296 299 298 298 300 299 300
308 296 315 312 294 296 295 302 302 302 305 303 303 301 297 297 297 297 296 298 303 302 294 296 291 283 290 296 297 294 293 292 282 283 281 280 282 296 297 297 298 299 299 299 298
303 306 318 308 287 288 299 303 303 301 301 301 301 303 302 298 295 298 298 303 302 300 296 296 289 282 287 292 296 291 294 295 290 284 282 275 280 295 298 297 298 297 299 298 297
305 296 303 307 301 297 299 299 300 304 303 303 302 303 300 298 300 297 298 302 302 299 300 300 293 287 282 287 289 286 290 292 289 280 282 282 286 291 295 295 295 296 297 296 296
308 299 300 292 295 301 301 300 299 298 303 303 300 300 298 292 296 295 299 299 301 300 299 297 288 291 291 291 290 289 288 289 288 288 283 286 287 292 294 294 295 297 297 297 296
307 305 302 296 298 299 298 299 300 301 301 299 298 301 300 295 297 295 298 296 295 297 296 297 286 286 285 291 290 286 289 290 290 290 289 289 289 295 296 296 296 296 295 295 295
312 311 304 298 294 295 297 299 301 302 303 304 302 297 294 298 299 299 299 300 300 296 295 292 285 282 279 286 285 280 288 290 290 291 290 285 290 293 293 294 294 293 294 293 294

GFSSW_sfc_thetae_033.txt.gz
Theta_e
321 321 320 320 320 320 320 319 318 317 317 317 317 317 318 318 317 314 306 309 313 323 319 307 309 308 307 305 302 297 292 289 292 297 297 303 300 303 312 313 312 313 312 318 318
320 320 318 318 318 320 319 319 318 317 316 317 317 317 318 317 313 310 318 323 325 324 306 305 304 306 300 300 301 296 291 292 296 301 301 298 308 307 309 309 310 308 311 315 315
320 320 319 317 317 318 319 318 317 317 317 317 317 318 317 316 309 307 324 325 327 321 308 307 307 305 299 300 298 295 291 295 297 299 298 297 300 303 309 306 310 307 309 311 313
319 319 318 317 317 319 318 316 316 316 316 317 317 318 317 312 295 307 326 329 327 313 309 307 305 302 300 297 300 293 296 297 297 298 298 297 297 304 299 310 314 313 312 311 312
317 317 318 318 318 318 317 316 316 315 316 316 317 318 312 307 306 312 328 329 318 312 307 307 305 303 298 297 296 294 295 297 297 298 295 298 297 298 297 311 315 314 312 311 312
317 317 317 317 317 317 316 315 315 314 315 316 316 317 308 298 311 312 315 316 313 311 309 309 306 306 300 297 295 297 295 295 296 297 297 297 295 296 298 313 314 314 312 311 312
317 316 316 316 316 316 315 315 315 314 315 316 317 314 310 305 312 313 311 312 312 311 308 309 309 303 301 297 298 296 293 294 294 295 294 297 293 294 301 314 313 313 313 313 312
317 316 315 315 315 315 314 314 314 315 315 316 317 312 304 314 314 314 309 307 310 312 310 309 308 304 300 299 298 295 293 289 294 296 296 295 290 295 305 311 311 311 310 309 310
316 315 314 314 313 313 313 313 313 315 315 315 310 310 301 315 309 308 307 306 309 310 309 310 306 300 299 293 290 291 287 289 293 296 294 294 291 295 300 310 303 302 305 308 307
315 315 314 313 313 312 312 313 314 313 313 315 314 303 307 304 308 306 306 309 307 307 305 303 299 294 293 290 285 287 289 290 290 293 294 291 291 294 295 298 301 303 304 305 305
315 315 314 313 313 312 309 306 303 303 308 300 301 305 308 308 307 303 306 307 306 303 296 300 294 290 290 292 294 293 290 289 290 294 293 290 292 294 298 302 301 302 303 304 305
314 314 314 313 313 312 307 306 306 309 299 308 309 309 310 310 302 303 308 301 301 295 299 295 291 295 298 299 296 295 291 290 293 296 294 292 292 296 299 300 302 302 302 303 303
313 314 313 313 312 309 307 310 316 313 302 304 305 304 305 307 301 300 305 302 298 296 295 292 295 300 298 296 296 295 292 291 291 293 294 292 290 294 298 301 303 303 303 304 304
313 313 312 311 307 308 304 311 317 311 291 295 300 303 305 305 300 304 304 302 300 295 295 295 300 298 297 295 295 292 297 295 293 289 285 291 282 289 294 296 299 301 301 302 304
313 312 311 311 308 312 315 323 318 309 279 296 300 305 302 302 300 300 303 303 296 296 296 293 296 296 295 295 296 294 297 294 294 289 287 289 285 286 294 293 296 298 301 303 305
312 312 311 309 307 313 321 316 309 292 280 294 300 298 298 300 300 300 302 305 302 298 297 296 299 297 296 298 298 298 296 295 293 290 282 289 286 285 290 294 296 298 301 303 304
312 312 310 316 315 321 318 303 289 284 297 293 295 297 297 296 297 297 298 296 294 290 290 295 295 297 299 295 297 296 291 282 282 281 281 291 289 288 294 297 298 299 300 302 303
311 310 310 313 323 318 307 295 286 295 293 297 297 296 294 297 297 297 295 293 296 295 291 289 287 294 298 295 292 293 291 282 281 279 281 290 285 289 297 300 301 301 300 300 300
310 309 316 319 321 313 300 286 290 295 297 296 297 293 293 297 297 296 293 293 294 295 291 289 289 297 297 297 296 293 287 292 285 282 279 284 288 295 297 298 299 299 300 302 300
312 312 311 319 317 309 297 292 298 301 300 298 292 295 291 293 294 294 293 297 295 297 298 295 288 295 296 297 297 293 295 287 284 278 279 282 285 286 292 295 299 301 300 298 298
309 300 307 320 306 299 290 295 302 302 303 297 295 294 294 293 294 293 294 297 298 298 297 295 290 289 295 291 289 291 289 289 288 283 278 276 281 291 295 297 297 297 297 297 297
304 294 313 306 293 293 294 301 301 300 303 302 301 299 295 295 295 294 294 296 301 300 292 294 289 283 288 294 295 292 291 289 280 282 280 279 281 293 295 298 297 296 296 295 297
302 306 316 302 286 287 296 301 301 299 299 299 298 300 300 297 293 296 296 301 299 298 294 294 288 281 286 291 293 290 292 291 287 283 281 275 280 294 296 295 296 294 295 295 295
303 295 302 304 296 294 295 297 297 302 301 301 300 301 298 296 298 294 296 300 299 297 299 298 291 285 282 285 288 285 288 290 288 280 281 281 284 290 292 293 294 294 295 294 295
304 297 299 292 296 299 298 298 297 296 301 301 298 298 297 292 294 294 297 297 298 299 297 294 287 289 288 289 288 287 287 288 287 286 282 284 286 289 292 292 293 295 295 295 294
304 300 299 294 297 298 296 298 298 298 298 297 296 299 297 294 295 294 296 294 292 295 294 295 285 286 284 289 288 285 287 287 287 287 288 287 287 293 294 295 294 294 294 293 294
307 308 301 294 293 293 294 298 299 301 301 302 300 296 292 296 298 297 298 298 298 295 293 290 284 281 277 284 282 278 284 289 289 290 289 285 289 292 292 293 292 293 293 292 293

GFSSW_sfc_thetae_039.txt.gz
Theta_e
320 320 318 318 318 319 318 316 317 318 318 318 318 317 318 318 316 313 306 312 315 323 319 309 309 308 309 307 306 302 298 294 298 304 305 310 310 310 316 314 315 313 323 327 327
319 318 319 319 319 319 318 317 316 318 318 318 317 317 317 317 311 309 317 323 323 324 309 307 306 307 305 305 305 302 297 297 301 310 308 311 311 310 313 313 310 314 322 325 325
319 319 319 319 319 318 318 316 315 318 317 317 317 317 317 316 308 306 323 324 325 323 311 310 308 306 302 303 303 300 298 300 300 308 310 308 308 313 312 311 312 314 319 322 323
318 318 318 318 318 316 317 316 317 317 317 316 316 317 317 313 297 310 330 327 327 312 310 308 306 304 303 301 303 298 299 299 299 302 305 307 310 312 313 311 316 321 323 321 320
317 317 318 318 317 316 317 316 316 316 316 315 316 317 313 307 306 318 328 327 317 310 309 306 304 304 302 301 300 298 298 298 299 300 305 304 309 312 306 313 319 320 321 320 319
316 316 317 317 317 317 316 316 315 315 315 314 316 317 309 299 311 321 317 312 312 310 308 308 306 307 304 301 299 299 298 297 297 299 300 300 300 306 306 313 316 317 316 316 315
316 316 316 317 316 316 316 315 314 314 315 315 316 314 309 306 313 316 314 313 313 311 308 309 310 307 305 299 300 299 297 299 299 300 299 301 297 297 309 313 314 314 313 313 313
317 316 315 315 315 315 314 314 313 314 315 315 316 313 305 313 315 312 312 310 313 312 310 311 312 308 303 303 300 297 297 294 298 299 299 299 293 298 312 311 311 311 312 312 314
316 316 315 314 313 313 313 313 313 314 315 315 311 310 304 314 310 312 312 309 309 311 311 309 311 304 301 297 296 296 291 293 295 299 299 298 294 300 307 311 309 310 311 312 312
316 315 315 314 313 312 311 312 313 314 313 314 313 305 306 305 310 308 311 311 310 308 307 306 302 299 297 296 290 292 292 293 294 297 299 296 296 300 304 309 307 308 309 309 310
316 315 314 314 313 312 310 307 304 303 308 302 302 303 305 310 310 306 309 311 309 307 301 302 299 295 296 297 295 295 294 293 295 296 298 296 297 299 303 306 306 306 308 308 308
315 314 314 313 313 312 308 303 305 310 304 307 307 307 309 310 304 305 311 306 305 300 301 299 295 298 300 298 297 295 294 294 295 297 299 297 297 300 302 303 305 306 307 308 311
313 313 313 312 312 309 306 308 315 317 306 304 307 305 304 308 304 303 308 306 302 299 297 297 298 300 300 298 298 296 295 294 294 297 297 297 295 298 301 303 304 305 307 310 311
313 313 312 311 307 307 305 312 313 315 294 296 301 303 305 306 303 306 307 306 301 297 297 299 300 298 297 297 298 295 298 296 294 294 292 295 290 295 299 300 303 304 306 308 309
312 312 311 311 307 306 311 322 317 309 283 298 300 306 304 302 302 303 307 305 299 298 299 297 298 297 297 297 298 296 299 297 295 294 293 293 292 293 298 299 301 304 305 306 308
312 312 311 310 307 311 318 315 309 294 284 295 300 298 300 301 301 303 305 306 303 300 300 298 302 300 299 299 299 300 299 297 296 294 289 291 291 291 295 299 302 304 305 306 307
310 311 311 311 308 321 316 306 292 287 297 293 295 298 298 298 299 300 299 298 296 294 294 297 297 300 301 298 300 299 296 289 288 288 287 292 291 295 297 299 305 304 305 306 308
309 310 310 311 315 316 307 297 287 292 293 297 296 297 295 298 298 298 297 296 298 296 293 292 289 297 300 298 297 296 296 291 283 285 288 291 289 295 299 301 306 306 306 307 307
310 308 308 313 313 311 300 288 289 292 298 295 296 294 295 298 297 297 295 295 296 298 294 292 291 299 299 300 299 295 292 295 288 285 285 289 293 297 299 299 302 304 304 306 307
307 306 308 319 316 306 296 290 293 300 299 297 292 295 292 295 295 295 295 298 297 298 301 296 291 296 297 300 299 297 297 291 290 282 281 285 287 291 295 297 300 302 304 305 305
308 304 310 318 308 299 290 291 299 305 302 297 295 294 295 294 295 294 295 298 300 299 300 297 295 293 296 294 294 295 293 291 291 288 283 281 286 296 298 300 300 303 304 304 303
302 296 314 307 296 294 293 296 302 301 302 302 300 298 296 296 296 295 295 298 301 302 297 296 293 289 292 296 298 296 294 293 287 284 285 285 287 295 298 300 301 302 302 302 301
299 305 314 304 290 290 296 299 301 299 300 300 300 301 301 297 294 296 297 301 300 299 297 297 292 287 289 293 295 294 294 291 289 288 285 286 287 295 297 298 301 302 300 299 299
305 298 304 300 297 295 295 296 298 302 302 301 300 301 299 297 298 295 297 300 301 299 299 299 291 290 288 289 292 289 292 291 292 287 286 287 289 292 296 297 297 298 299 298 298
302 299 302 294 295 295 297 298 297 297 302 301 299 299 298 294 295 295 298 298 298 299 298 297 291 291 289 290 290 289 289 291 290 290 288 289 289 293 295 298 297 298 297 297 297
300 298 296 296 298 296 296 297 297 299 300 299 298 299 300 296 297 295 297 296 294 298 296 295 290 290 288 289 288 288 289 289 290 290 290 289 289 295 296 298 296 296 296 296 297
307 304 300 292 295 293 294 297 298 301 301 301 300 298 296 299 300 299 299 298 297 297 293 292 289 287 284 284 284 283 288 290 289 291 292 288 294 296 295 296 297 296 297 297 297

GFSSW_sfc_thetae_042.txt.gz
Theta_e
320 319 319 319 318 319 320 319 317 317 318 319 318 318 318 318 316 317 311 315 317 324 320 314 314 312 313 310 312 310 302 301 307 309 309 317 312 315 318 317 319 320 324 331 334
319 319 319 319 319 319 318 318 317 316 317 319 318 317 318 317 316 312 320 324 324 326 313 312 309 311 308 308 310 306 302 302 311 315 311 310 313 313 314 314 314 320 330 334 335
319 319 319 319 319 318 317 316 317 317 318 318 317 317 317 318 312 309 324 324 324 324 317 316 312 309 305 308 308 306 302 306 305 314 313 309 314 317 313 313 317 318 327 330 332
319 318 318 318 319 317 316 315 317 318 317 317 317 317 317 318 300 316 329 329 326 319 315 314 310 306 303 302 307 302 305 304 306 314 311 312 316 315 316 314 320 323 331 331 329
317 317 317 318 318 317 316 316 317 317 316 316 316 317 317 311 309 322 328 326 319 315 312 312 308 306 303 305 305 303 303 304 311 311 310 314 313 314 313 319 324 329 329 326 324
317 316 317 317 318 317 317 316 316 316 316 315 316 316 315 303 315 323 323 319 317 314 313 313 309 310 308 306 304 305 301 302 305 309 308 310 312 315 313 321 323 326 324 321 319
316 316 316 317 317 317 316 316 315 315 315 316 316 317 311 309 317 323 319 316 318 316 313 315 314 310 310 304 303 302 298 300 302 305 305 311 307 302 313 319 320 321 320 318 317
316 316 316 316 315 315 315 314 314 314 315 315 316 317 307 317 320 317 318 317 318 318 316 315 316 311 308 306 303 300 301 297 301 306 303 305 298 304 315 316 317 318 317 317 317
316 315 315 314 314 313 314 313 313 314 315 316 316 314 306 318 313 317 318 312 315 315 315 314 314 309 306 300 298 300 295 297 298 303 304 303 299 305 315 315 315 316 317 317 318
315 315 315 314 314 313 312 313 314 314 315 317 316 311 313 308 313 315 315 313 313 312 309 309 309 303 302 300 293 296 295 297 297 301 303 301 302 305 313 314 314 316 317 317 317
315 316 315 314 314 313 313 316 311 310 312 308 306 308 308 313 315 311 312 313 313 310 304 308 303 299 301 302 301 301 299 297 300 302 302 301 302 304 312 314 314 315 316 317 317
315 315 314 314 314 312 315 309 311 316 307 311 310 309 311 313 307 309 313 307 306 301 306 304 300 303 304 303 301 300 299 299 300 301 303 303 303 305 308 312 314 315 316 317 318
314 314 314 313 312 313 313 311 321 320 311 307 310 308 308 311 306 307 311 309 304 301 303 301 302 304 304 302 301 300 299 299 299 301 304 303 301 303 306 309 311 314 317 318 320
314 313 312 311 309 315 310 315 317 318 302 299 303 307 308 311 305 310 312 308 306 302 303 303 304 302 303 301 302 298 302 301 300 299 296 302 293 302 305 305 308 311 315 318 319
313 313 311 311 315 310 316 320 324 319 287 301 304 312 310 306 306 306 313 309 302 302 302 300 302 302 300 300 302 300 303 302 300 300 299 298 295 300 304 303 305 310 314 317 317
312 312 311 312 315 319 325 328 322 301 287 298 304 303 303 305 304 307 308 310 309 304 305 303 306 305 303 304 304 305 303 303 302 301 293 297 296 296 301 304 307 310 314 315 315
309 311 313 317 311 328 326 319 299 292 300 296 299 302 301 301 302 304 303 303 300 297 298 301 301 305 306 303 305 304 300 293 291 291 290 297 295 297 302 305 309 310 313 314 313
308 310 313 317 321 324 321 307 291 295 297 301 300 301 298 301 301 302 302 300 303 302 300 296 294 300 304 303 300 300 299 293 283 287 292 296 293 300 305 307 309 313 314 313 312
309 313 314 318 320 320 311 297 295 298 301 299 300 297 298 301 300 301 301 301 302 304 297 296 295 302 302 305 304 300 297 301 294 291 291 295 298 303 304 304 307 311 312 311 312
314 312 312 321 324 314 306 297 300 304 303 301 295 299 296 299 298 299 300 302 301 303 306 301 295 300 301 304 304 303 303 295 297 285 283 290 292 296 300 302 305 309 310 310 312
313 306 319 327 323 309 300 300 301 308 306 301 298 298 299 299 299 298 299 302 303 303 306 304 300 298 300 299 298 299 298 297 297 295 287 286 292 302 302 304 305 309 310 311 312
312 301 323 322 306 309 301 302 303 305 308 304 304 302 300 301 300 299 299 301 305 305 302 302 302 296 297 301 302 301 299 299 292 289 293 292 291 301 304 307 308 308 310 312 313
307 310 317 316 301 302 303 302 306 303 305 305 303 304 305 302 298 301 302 304 304 304 303 303 299 293 294 298 300 298 300 299 296 296 291 290 291 301 304 305 307 308 310 310 310
309 304 311 310 309 304 301 300 301 306 305 306 305 306 305 302 304 301 302 302 303 304 299 302 300 297 293 295 299 295 297 298 297 292 291 292 293 297 300 303 305 308 310 309 307
311 305 309 302 304 303 304 302 300 301 306 307 304 305 304 300 301 301 303 301 303 300 304 304 297 297 295 295 295 296 296 297 295 296 292 294 293 297 299 301 304 307 308 307 305
308 306 308 308 306 302 300 301 300 303 304 303 304 305 306 303 303 301 303 302 302 303 303 301 297 296 293 294 294 293 296 296 297 297 297 297 296 302 303 303 304 305 305 304 304
317 312 311 299 303 301 300 302 302 307 305 305 308 306 304 304 307 309 307 306 305 304 302 300 298 294 290 291 291 289 294 296 296 298 298 294 299 301 300 301 303 304 305 304 304

GFSSW_sfc_thetae_048.txt.gz
Theta_e
320 320 321 321 321 320 320 319 317 317 318 319 318 319 319 319 317 316 312 317 318 326 321 315 316 313 312 309 311 311 300 298 301 306 308 314 310 315 319 316 317 320 322 328 331
320 319 320 320 320 320 320 319 317 317 317 319 319 319 319 318 315 311 320 329 327 327 313 311 310 312 307 306 307 305 301 301 311 312 308 309 311 313 312 313 312 323 331 334 332
320 319 319 319 319 319 319 318 317 317 318 319 318 319 318 317 313 313 329 328 327 323 313 313 314 311 305 307 306 305 301 307 312 311 311 309 309 316 311 309 312 320 326 330 332
320 319 319 319 319 319 318 317 318 318 318 318 318 318 318 316 303 316 331 328 328 318 314 312 312 306 303 302 307 302 307 308 314 313 311 308 313 309 311 311 316 322 329 329 328
318 318 318 318 318 318 318 317 317 317 317 317 317 317 316 312 311 322 332 327 320 314 313 311 308 306 302 304 306 304 306 308 309 314 312 312 310 309 310 315 318 324 326 326 326
318 317 317 317 318 318 318 317 317 317 317 317 317 317 314 305 318 321 322 323 318 312 313 312 310 310 306 306 304 307 307 308 310 310 310 308 307 306 312 324 324 322 322 323 325
318 317 317 317 317 317 317 316 316 316 316 317 317 316 311 308 319 321 322 319 319 317 312 315 314 310 310 306 309 308 303 306 307 309 308 313 304 305 314 320 319 319 320 322 318
318 317 316 315 315 315 315 315 315 316 316 317 316 316 308 319 320 317 319 319 321 319 318 318 318 312 310 311 305 303 303 297 304 307 309 308 300 309 314 315 315 316 316 315 314
318 317 315 315 315 315 315 315 315 316 316 317 316 315 308 320 313 317 318 315 316 317 318 317 314 310 309 303 299 300 293 296 300 306 306 305 301 308 314 313 312 312 312 312 313
317 316 315 315 315 314 314 314 316 315 316 317 316 309 314 309 314 315 319 316 314 315 312 311 309 305 305 299 291 295 295 298 298 303 305 303 302 306 311 313 311 312 311 311 312
317 316 316 315 315 315 314 316 312 311 312 308 309 308 310 315 318 314 317 313 313 312 305 308 302 298 301 302 301 300 298 297 301 304 302 300 301 303 308 311 312 312 312 312 313
316 316 316 316 315 315 314 312 314 318 309 316 310 311 313 315 308 311 316 308 308 303 305 303 299 304 305 304 301 300 299 298 301 302 301 300 300 304 306 309 312 313 313 314 315
316 316 316 315 314 313 313 312 319 320 309 312 314 307 309 312 308 308 312 309 305 302 302 299 301 306 305 303 300 300 298 299 299 301 302 301 298 302 306 309 311 314 316 317 317
315 315 315 313 308 316 313 319 319 323 302 304 306 307 311 311 306 313 313 309 305 301 304 301 305 304 303 300 302 297 304 302 300 297 292 302 291 300 303 306 309 311 313 316 318
314 314 313 311 316 315 320 323 324 321 291 305 305 314 311 306 307 308 313 309 303 302 304 300 302 302 301 301 304 299 304 302 301 298 297 296 293 298 303 302 306 312 314 316 319
313 313 313 313 315 318 323 327 320 302 289 299 304 303 304 305 306 308 307 311 309 304 305 302 308 306 304 305 305 306 303 302 302 299 291 295 295 295 299 302 307 311 314 317 319
312 313 312 318 313 323 324 320 300 292 303 299 299 303 302 302 303 303 302 301 299 296 297 301 301 306 307 302 305 303 299 292 288 289 290 298 295 298 302 308 309 310 314 317 320
311 311 312 316 322 326 323 308 292 298 300 303 302 302 299 302 301 302 300 298 302 301 297 295 293 302 306 302 299 300 299 291 285 288 292 298 292 298 307 309 312 314 315 318 318
310 312 313 318 321 325 313 297 296 301 303 302 301 298 298 301 301 301 299 299 301 302 296 295 295 304 306 305 305 300 297 303 295 298 294 293 296 305 307 307 309 311 313 315 316
310 309 309 321 324 317 306 298 301 306 306 304 296 299 296 298 298 299 298 302 301 304 307 301 293 301 305 306 305 302 304 296 297 287 285 290 293 296 300 303 306 310 312 315 316
309 303 315 325 321 308 298 301 304 309 308 303 299 298 299 298 299 298 298 302 304 305 307 302 297 299 303 300 297 300 298 298 297 297 290 288 291 302 302 304 305 308 313 315 315
306 297 319 323 303 301 299 303 304 307 309 306 305 302 300 300 299 298 298 302 308 307 302 305 301 297 298 304 305 303 300 300 296 292 296 295 292 304 305 306 307 308 312 315 316
301 306 321 318 296 297 302 304 305 305 306 305 304 304 305 301 298 301 302 309 308 306 303 306 300 293 294 300 304 300 300 300 300 300 294 291 293 305 305 304 306 307 310 313 315
302 299 307 312 308 300 299 301 302 308 306 306 305 305 303 301 304 301 301 307 309 308 303 308 301 296 292 295 300 298 299 300 299 295 294 294 295 300 302 303 304 306 308 311 313
305 302 307 298 302 302 305 303 300 301 307 307 304 304 302 299 300 300 303 305 307 302 305 306 296 297 298 299 300 299 299 299 297 298 294 297 296 299 302 303 305 307 307 307 308
302 304 309 305 305 303 301 303 301 303 303 303 303 304 304 301 301 300 303 305 303 306 305 306 298 300 297 300 299 296 298 298 298 298 297 298 297 304 305 306 304 304 304 305 306
309 312 308 303 304 301 301 304 304 306 306 306 307 305 304 306 310 312 312 311 308 306 304 304 302 298 293 296 294 289 296 297 298 300 299 294 300 304 303 303 303 305 305 306 306

GFSSW_sfc_thetae_051.txt.gz
Theta_e
321 321 320 320 320 320 320 319 319 318 318 318 319 320 319 319 316 313 308 313 314 323 321 312 310 310 306 301 302 299 290 289 293 303 306 313 309 316 315 315 315 316 316 326 328
321 321 320 320 319 319 319 319 318 318 318 318 319 319 319 318 312 309 316 324 326 326 310 306 305 307 300 299 298 295 289 292 306 308 307 310 310 312 311 310 312 321 324 327 323
321 321 320 320 319 319 318 318 317 318 318 318 319 318 318 316 309 312 327 327 327 321 309 308 308 306 300 299 297 296 292 302 308 310 309 308 310 314 310 306 311 317 321 323 322
320 320 319 319 319 318 317 316 317 318 318 318 318 318 317 313 300 308 328 329 328 314 310 307 305 300 299 296 299 294 301 305 310 311 310 308 309 309 311 309 315 324 326 320 319
319 318 318 318 318 317 317 316 317 317 317 317 318 318 312 307 309 318 329 327 318 312 308 307 305 302 297 298 299 298 301 304 312 311 310 312 307 308 310 314 317 328 328 323 321
318 318 317 317 317 317 317 316 316 316 316 317 317 317 310 301 316 321 324 318 314 309 308 308 306 306 302 301 301 304 304 304 307 308 308 308 308 304 313 314 316 322 323 321 319
318 317 317 316 316 316 316 316 315 315 316 317 317 314 308 304 313 312 314 317 315 310 307 309 310 305 304 303 306 303 299 302 304 306 305 305 302 302 309 315 318 319 320 318 314
319 318 316 315 315 314 315 314 314 315 316 316 317 311 304 318 314 314 314 312 317 315 313 314 313 308 305 306 304 299 299 294 302 307 308 306 298 305 309 312 311 314 316 319 312
319 317 316 314 314 314 314 314 314 315 316 316 310 308 306 320 314 315 312 311 314 314 314 316 310 305 304 298 296 296 291 293 297 307 306 304 299 305 308 310 308 307 306 308 309
318 317 316 315 314 313 313 313 314 313 314 314 313 303 310 308 312 313 313 314 310 311 310 308 303 299 300 295 288 292 292 294 293 300 304 301 298 302 307 309 306 305 304 305 307
318 317 316 314 314 314 311 310 307 306 307 305 306 305 307 312 315 310 312 310 308 307 300 304 298 294 296 300 299 297 296 293 296 300 299 300 298 301 304 306 304 303 303 304 306
317 316 316 315 314 314 308 305 309 310 304 312 310 311 311 311 306 309 312 304 303 299 302 299 296 302 304 303 300 298 296 296 299 300 297 294 295 300 303 306 307 305 304 305 307
316 316 315 314 314 308 307 308 313 312 303 308 312 311 309 308 305 305 308 304 300 299 299 296 300 305 303 301 300 299 297 296 296 299 297 297 293 295 301 304 308 309 308 309 311
315 315 314 312 307 310 308 315 314 311 296 301 306 310 309 306 304 310 310 305 302 298 301 299 304 302 300 299 301 295 302 301 298 295 288 297 286 295 299 301 304 308 308 309 311
315 314 313 312 307 308 316 318 315 312 283 305 305 310 306 304 305 305 310 305 299 300 301 298 300 301 299 300 303 298 302 300 300 296 293 293 290 294 299 299 301 303 307 310 313
314 313 312 310 309 311 314 315 315 298 285 300 304 301 301 303 304 305 304 306 305 301 301 300 304 303 302 305 303 303 300 300 298 296 286 294 292 290 294 300 303 306 308 309 311
313 313 311 313 307 317 313 311 295 289 301 298 297 300 300 299 300 301 299 296 294 291 292 298 300 303 305 299 302 300 295 286 284 284 284 297 293 293 301 303 305 305 307 309 314
312 311 311 312 313 314 314 305 290 296 297 303 300 300 296 299 299 299 296 293 297 296 293 291 290 299 304 300 298 298 296 287 282 283 285 296 291 295 303 305 307 309 307 312 312
311 310 308 310 312 312 309 294 291 298 300 301 299 295 295 298 300 297 295 294 296 297 290 293 293 304 305 305 302 298 293 300 291 289 282 288 293 300 303 303 306 306 309 310 310
309 307 306 312 315 310 303 294 298 304 304 303 295 296 292 295 296 295 295 298 298 300 301 299 292 300 303 305 303 299 301 290 290 281 279 286 288 291 298 301 303 305 307 309 310
308 302 308 314 314 306 293 296 300 306 306 303 299 296 296 295 296 294 296 299 301 303 304 300 294 295 301 298 296 296 294 294 293 290 282 279 285 296 298 300 300 303 309 310 309
306 296 311 317 298 297 294 298 301 304 306 305 303 302 299 297 297 295 296 298 303 305 299 301 295 290 295 301 303 299 296 296 284 286 287 283 285 298 299 301 301 301 309 311 311
301 302 313 312 289 292 297 298 301 302 302 303 302 303 303 298 296 297 298 306 304 302 299 302 294 285 290 295 299 296 297 296 296 292 287 280 285 298 300 299 301 300 306 310 310
302 295 304 306 299 295 295 295 296 304 303 305 304 304 301 297 300 299 300 306 306 304 301 303 297 292 285 290 295 293 296 297 294 284 286 287 291 295 297 297 299 300 300 306 310
302 298 304 296 298 297 297 297 296 298 305 305 303 302 300 294 296 298 301 303 305 302 302 300 292 294 294 296 297 296 295 295 294 293 287 291 293 296 296 297 297 300 301 301 303
298 298 304 301 302 299 297 295 297 299 302 300 300 302 301 296 297 296 301 301 299 301 299 301 292 293 291 297 295 292 294 295 294 294 293 293 292 297 298 299 298 298 299 300 301
304 305 304 299 299 297 296 297 298 302 304 305 303 301 299 300 304 303 306 305 304 300 297 298 294 288 285 290 290 283 291 293 294 295 293 288 293 297 297 298 298 298 300 300 301